KR8E Weather Reports


time (UTC)temp
F
wind
direction
speed
knots
gust
knots
rain 1hr
in
rain 24hr
in
rain mn
in
humidity
%
barometer
mb
20260510153524 64 35 0.9 1.7 0.00 0.01 0.00 58 1017.5
20260510152528 63 97 1.7 2.6 0.00 0.01 0.00 56 1017.5
20260510151532 64 23 1.7 2.6 0.00 0.01 0.00 60 1017.5
20260510150557 62 58 0.9 2.6 0.00 0.01 0.00 64 1017.2
20260510145601 61 346 0.9 2.6 0.00 0.01 0.00 66 1017.1
20260510144524 62 140 1.7 2.6 0.00 0.01 0.00 67 1017.1
20260510143548 58 113 0.0 0.9 0.00 0.01 0.00 74 1017.0
20260510142532 57 90 0.9 1.7 0.00 0.01 0.00 76 1016.8
20260510141517 57 0.0 0.0 0.00 0.01 0.00 78 1016.6
20260510140521 56 0.0 0.0 0.00 0.01 0.00 78 1016.6
20260510135524 57 33 0.9 1.7 0.00 0.01 0.00 78 1016.6
20260510134528 56 75 0.9 1.7 0.00 0.01 0.00 80 1016.5
20260510133525 56 0.0 0.0 0.00 0.01 0.00 82 1016.3
20260510132517 56 77 0.9 2.6 0.00 0.01 0.00 81 1016.1
20260510131520 57 135 0.9 2.6 0.00 0.02 0.00 82 1016.1
20260510130538 57 284 0.9 1.7 0.00 0.02 0.00 83 1015.9
20260510125516 56 148 0.0 1.7 0.00 0.02 0.00 85 1015.9
20260510124531 56 68 0.9 2.6 0.00 0.02 0.00 86 1015.9
20260510123537 56 0.0 0.0 0.00 0.02 0.00 87 1015.9
20260510122540 56 135 0.0 1.7 0.00 0.02 0.00 90 1015.4
20260510121524 55 0.0 0.0 0.00 0.02 0.00 92 1015.4
20260510120527 55 0.0 1.7 0.00 0.02 0.00 94 1015.0
20260510115531 54 0.0 0.0 0.00 0.02 0.00 95 1015.0
20260510114557 54 0.0 0.0 0.00 0.02 0.00 96 1014.9
20260510113520 54 90 0.0 0.9 0.00 0.02 0.00 96 1014.7
20260510112524 54 0.0 0.0 0.00 0.02 0.00 97 1014.3
20260510111528 54 0.0 0.0 0.00 0.02 0.00 97 1014.0
20260510110531 54 0.0 0.0 0.00 0.02 0.00 97 1013.7
20260510105536 54 0.0 0.0 0.00 0.02 0.00 97 1013.7
20260510104520 54 0.0 0.0 0.00 0.02 0.00 98 1013.6
20260510103524 54 0.0 0.0 0.00 0.02 0.00 99 1013.3
20260510102547 53 0.0 0.0 0.00 0.02 0.00 99 1013.3
20260510101531 53 0.0 0.0 0.00 0.02 0.00 99 1013.0
20260510100516 52 0.0 0.0 0.00 0.02 0.00 99 1012.7
20260510095520 52 0.0 0.0 0.00 0.02 0.00 99 1012.5
20260510094524 51 0.0 0.0 0.00 0.02 0.00 99 1012.3
20260510093547 51 0.0 0.0 0.00 0.03 0.00 99 1012.2
20260510092525 51 0.0 0.0 0.00 0.03 0.00 99 1011.9
20260510091616 52 0.0 0.0 0.00 0.03 0.00 99 1011.5
20260510090520 52 0.0 0.0 0.00 0.04 0.00 99 1011.5
20260510085517 52 0.0 0.0 0.00 0.04 0.00 99 1011.4
20260510084515 52 0.0 0.0 0.00 0.04 0.00 99 1011.2
20260510083530 53 0.0 0.0 0.00 0.05 0.00 99 1011.0
20260510082516 53 0.0 0.0 0.00 0.06 0.00 99 1010.8
20260510081519 53 0.0 0.0 0.00 0.07 0.00 99 1010.8
20260510080523 53 0.0 0.0 0.00 0.08 0.00 98 1011.0
20260510075527 53 0.0 0.0 0.00 0.08 0.00 96 1010.8
20260510074530 53 0.0 0.0 0.00 0.08 0.00 96 1010.6
20260510073536 54 0.0 0.0 0.00 0.08 0.00 96 1010.8
20260510072519 54 0.0 0.0 0.00 0.08 0.00 94 1010.8
20260510071523 55 0.0 0.0 0.00 0.08 0.00 94 1010.8
20260510070526 55 0.0 0.0 0.00 0.08 0.00 94 1010.9
20260510065530 56 0.0 0.0 0.00 0.08 0.00 90 1010.9
20260510064515 57 0.0 0.0 0.00 0.08 0.00 89 1010.8
20260510063519 57 0.0 0.0 0.00 0.08 0.00 88 1011.0
20260510062522 58 0.0 0.0 0.00 0.08 0.00 88 1011.0
20260510061526 58 0.0 0.0 0.00 0.08 0.00 84 1010.8
20260510060550 59 0.0 0.0 0.00 0.08 0.00 85 1010.8
20260510055515 59 0.0 0.0 0.00 0.08 0.00 83 1010.9
20260510054519 60 0.0 0.0 0.00 0.08 0.00 81 1011.0
20260510053522 61 45 0.0 1.7 0.00 0.08 0.00 80 1011.0
20260510052546 62 270 0.0 1.7 0.00 0.08 0.00 78 1010.6
20260510051524 62 290 0.9 2.6 0.00 0.08 0.00 78 1010.4
20260510050535 62 145 0.9 2.6 0.00 0.08 0.00 78 1010.4
20260510045519 61 236 0.0 1.7 0.00 0.08 0.00 78 1010.4
20260510044516 61 225 0.0 1.7 0.00 0.08 0.00 79 1010.4
20260510043526 60 283 0.9 1.7 0.00 0.08 0.00 79 1010.3
20260510042529 60 263 0.0 0.9 0.00 0.08 0.00 78 1010.1
20260510041515 60 234 0.9 1.7 0.00 0.08 0.00 78 1010.1
20260510040519 61 0.0 0.0 0.00 0.08 0.00 77 1010.0
20260510035543 61 263 0.0 0.9 0.00 0.08 0.00 76 1010.0
20260510034526 61 270 0.9 1.7 0.00 0.08 0.00 76 1010.0
20260510033530 61 0.0 0.0 0.00 0.08 0.00 74 1009.9
20260510032515 62 250 0.9 2.6 0.00 0.08 0.00 73 1009.8
20260510031519 62 240 0.9 2.6 0.00 0.08 0.00 73 1009.7
20260510030522 62 246 1.7 2.6 0.00 0.08 0.00 73 1009.7
20260510025526 62 248 0.9 2.6 0.00 0.08 0.00 72 1009.7
20260510024550 62 267 1.7 3.5 0.00 0.08 0.00 72 1009.6
20260510023515 63 0.0 0.0 0.00 0.08 0.00 71 1009.5
20260510022538 63 301 0.0 1.7 0.00 0.08 0.00 70 1009.4
20260510021522 63 270 0.0 1.7 0.00 0.08 0.00 69 1009.3
20260510020546 64 251 0.9 1.7 0.00 0.08 0.00 68 1009.0
20260510015549 64 288 0.9 2.6 0.00 0.08 0.00 68 1008.8
20260510014533 64 267 1.7 3.5 0.00 0.08 0.00 67 1008.7
20260510013518 64 267 1.7 2.6 0.00 0.08 0.00 67 1008.5
20260510012522 65 267 0.9 1.7 0.00 0.08 0.00 67 1008.4
20260510011526 65 241 0.9 3.5 0.00 0.08 0.00 66 1008.4
20260510010523 65 280 0.9 1.7 0.00 0.08 0.00 65 1008.4
20260510005521 66 270 0.0 0.9 0.00 0.08 0.00 64 1008.3
20260510004518 67 257 0.9 1.7 0.00 0.08 0.00 62 1008.2
20260510003516 67 279 0.9 2.6 0.00 0.08 0.00 61 1008.0
20260510002525 68 252 0.9 2.6 0.00 0.08 0.00 59 1007.9
20260510001549 69 0.0 0.0 0.00 0.08 0.00 58 1007.9
20260510000532 69 270 0.9 0.9 0.00 0.08 0.00 57 1007.9
20260509235026 71 247 1.7 2.6 0.00 0.08 0.08 54 1007.8
20260509234024 71 278 1.7 4.3 0.00 0.08 0.08 54 1007.6
20260509233015 72 231 2.6 5.2 0.00 0.08 0.08 54 1007.4
20260509232019 72 256 1.7 3.5 0.00 0.08 0.08 53 1007.4
20260509231016 73 256 2.6 5.2 0.00 0.08 0.08 52 1007.4
20260509230026 73 280 1.7 3.5 0.00 0.08 0.08 51 1007.4
20260509225030 73 232 2.6 4.3 0.00 0.08 0.08 51 1007.6
20260509224015 73 256 2.6 7.0 0.00 0.08 0.08 52 1007.6
20260509223019 74 269 2.6 4.3 0.00 0.08 0.08 52 1007.6
20260509222022 75 235 2.6 4.3 0.00 0.08 0.08 53 1007.6
20260509221106 74 246 2.6 5.2 0.00 0.08 0.08 52 1007.7
20260509220029 75 221 1.7 4.3 0.00 0.08 0.08 52 1007.8
20260509215015 75 267 2.6 6.1 0.00 0.08 0.08 52 1007.8
20260509214019 75 248 2.6 4.3 0.00 0.08 0.08 52 1007.7
20260509213022 75 240 1.7 4.3 0.00 0.08 0.08 52 1007.7
20260509212026 75 272 2.6 4.3 0.00 0.08 0.08 52 1007.8
20260509211030 76 239 2.6 5.2 0.00 0.08 0.08 52 1007.8
20260509210015 74 294 2.6 5.2 0.00 0.08 0.08 54 1007.8
20260509205019 75 158 2.6 4.3 0.00 0.08 0.08 53 1008.0
20260509204022 76 198 2.6 3.5 0.00 0.08 0.08 53 1008.3
20260509203046 75 281 2.6 6.1 0.00 0.08 0.08 54 1008.3
20260509202029 74 12 2.6 4.3 0.00 0.08 0.08 55 1008.3
20260509201015 75 271 2.6 4.3 0.00 0.08 0.08 55 1008.4
20260509200039 73 249 2.6 4.3 0.00 0.08 0.08 55 1008.6
20260509195042 75 240 2.6 5.2 0.00 0.08 0.08 54 1008.8
20260509194026 75 261 2.6 3.5 0.00 0.08 0.08 55 1009.0
20260509193023 74 236 3.5 7.0 0.00 0.08 0.08 55 1009.1
20260509192015 74 300 2.6 7.0 0.00 0.08 0.08 57 1009.2
20260509191018 74 205 2.6 6.1 0.00 0.08 0.08 57 1009.2
20260509190016 74 87 3.5 7.0 0.00 0.08 0.08 56 1009.1
20260509185025 73 265 2.6 4.3 0.00 0.08 0.08 58 1009.1
20260509184130 72 219 2.6 3.5 0.00 0.08 0.08 60 1009.2
20260509183033 73 244 2.6 3.5 0.00 0.08 0.08 60 1009.4
20260509182038 72 258 2.6 4.3 0.00 0.08 0.08 63 1009.5
20260509181022 73 268 2.6 3.5 0.00 0.08 0.08 62 1009.6
20260509180025 70 285 3.5 5.2 0.00 0.08 0.08 65 1009.6
20260509175049 72 244 2.6 5.2 0.01 0.08 0.08 64 1009.7
20260509174033 71 51 2.6 4.3 0.01 0.08 0.08 67 1009.7
20260509173019 70 210 2.6 4.3 0.01 0.08 0.08 67 1009.9
20260509172021 68 268 3.5 7.0 0.01 0.08 0.08 68 1009.9
20260509171045 69 278 2.6 4.3 0.01 0.08 0.08 69 1009.8
20260509170029 69 208 1.7 3.5 0.01 0.08 0.08 70 1009.8
20260509165032 68 17 0.9 3.5 0.00 0.07 0.07 72 1009.9
20260509164018 69 242 2.6 4.3 0.00 0.07 0.07 74 1009.9
20260509163021 68 217 1.7 3.5 0.00 0.07 0.07 76 1009.9
20260509162025 67 271 2.6 3.5 0.00 0.07 0.07 77 1009.9
20260509161029 66 209 1.7 4.3 0.00 0.07 0.07 79 1009.9
20260509160032 64 85 0.9 2.6 0.00 0.07 0.07 82 1009.7
20260509155038 62 277 1.7 3.5 0.00 0.07 0.07 83 1009.7
20260509154042 64 0.0 1.7 0.00 0.07 0.07 84 1009.6